Regional Weather Roundup
Issued by NWS

Home | Current Version | Previous Version | Graphics & Text | Print | Product List | Glossary On
Versions: 1 2 3 4 5 6 7 8 9 10 11 12 13 14 15 16 17 18 19 20 21 22 23 24 25 26 27 28 29 30 31 32 33 34 35 36 37 38 39 40 41 42 43 44 45 46 47 48 49 50
000
ASUS43 KMKX 222121
RWRWI

WISCONSIN REGIONAL WEATHER ROUNDUP
NATIONAL WEATHER SERVICE MILWAUKEE/SULLIVAN WI
400 PM CDT WED OCT 22 2014

NOTE: "FAIR" INDICATES FEW OR NO CLOUDS BELOW 12,000 FEET WITH NO
SIGNIFICANT WEATHER AND/OR OBSTRUCTIONS TO VISIBILITY.

WIZ001-002-006>008-014>016-023>028-222200-
NORTHWEST WISCONSIN

CITY           SKY/WX    TMP DP  RH WIND       PRES   REMARKS
SUPERIOR ARPT  CLOUDY    59  40  48 S9        30.08F
ASHLAND        SUNNY     61  32  33 S8        30.13F
HAYWARD        SUNNY     57  33  40 S13G23    30.13F
SIREN          PTSUNNY   58  36  44 S14G22    30.09F
CUMBERLAND     CLOUDY    54  34  47 S13G20    30.13F
RICE LAKE      PTSUNNY   55  36  48 SE14G21   30.16F
CHETEK         PTSUNNY   55  37  49 SE16      30.16F
LADYSMITH      MOSUNNY   56  31  38 S13       30.19F
EAU CLAIRE     PTSUNNY   59  33  37 SE10      30.16F
MENOMONIE      CLOUDY    58  35  42 SE16      30.15F
NEW RICHMOND   CLOUDY    56  37  49 SE14G22   30.12S
OSCEOLA        PTSUNNY   57  39  51 SE16G22   30.13S
$$

WIZ003>005-009-010-017-018-222200-
NORTH CENTRAL WISCONSIN

CITY           SKY/WX    TMP DP  RH WIND       PRES   REMARKS
MANITOWISH WTR MOSUNNY   55  26  32 S14G20    30.19F
ARBOR VITAE    MOSUNNY   57  26  30 S12       30.20F
WOODRUFF       MOSUNNY   57  26  30 S12       30.20F
RHINELANDER    MOSUNNY   52  27  38 SE9       30.23F
EAGLE RIVER    MOSUNNY   55  22  27 S10G16    30.22S
LAND O LAKES   MOSUNNY   53  28  37 S8        30.22S
PHILLIPS       SUNNY     56  31  39 S8G17     30.19F
TOMAHAWK       SUNNY     55  29  38 CALM      30.23S
MEDFORD        SUNNY     54  33  46 S10       30.21F
MERRILL        SUNNY     55  31  40 SE8       30.23S
$$

WIZ029-030-035-036-043>047-222200-
CENTRAL WISCONSIN

CITY           SKY/WX    TMP DP  RH WIND       PRES   REMARKS
WAUSAU         SUNNY     55  32  41 SE13      30.23F
MOSINEE        SUNNY     54  34  47 SE7       30.25F
MARSHFIELD     SUNNY     56  32  40 S13       30.22F
STEVENS POINT  MOSUNNY   54  34  47 SE8       30.25S
WAUPACA        MOSUNNY   58  37  44 SE8       30.26F
WAUTOMA        CLOUDY    58  37  45 SE9       30.25F
WISC RAPIDS    SUNNY     57  35  43 SE9       30.24F
CAMP DOUGLAS   MOSUNNY   57  37  47 SE9       30.23S
$$

WIZ011>013-019>022-031-037>040-048>050-222200-
NORTHEAST WISCONSIN

CITY           SKY/WX    TMP DP  RH WIND       PRES   REMARKS
ANTIGO         SUNNY     51  33  51 SE9       30.25S
SHAWANO        SUNNY     54  37  53 SE7       30.27F
OCONTO           N/A     49  37  63 SE6       30.29F VSB 1
STURGEON BAY   SUNNY     45  34  65 SE8       30.32S
GREEN BAY      SUNNY     54  35  48 S7        30.29F
MANITOWOC      SUNNY     48  40  73 SE9       30.32F
APPLETON       MOSUNNY   54  37  54 SE10      30.28F
CLINTONVILLE   SUNNY     54  32  43 SE12      30.27F
OSHKOSH        SUNNY     56  39  53 SE10      30.27F
$$

WIZ032>034-041-042-053>061-222200-
SOUTHWEST WISCONSIN

CITY           SKY/WX    TMP DP  RH WIND       PRES   REMARKS
LA CROSSE      SUNNY     61  37  41 S10       30.19F
SPARTA         SUNNY     60  35  39 SE9       30.22F
VIROQUA        SUNNY     59  36  42 S8        30.21F
BOSCOBEL       SUNNY     61  37  41 VRB6      30.24S
PRAIRIE DU CHI SUNNY     60  36  41 SE8       30.21F
PLATTEVILLE    SUNNY     59  38  44 S9        30.25S
$$

WIZ056-057-062-063-064-067-068-222200-
SOUTH CENTRAL WISCONSIN

CITY           SKY/WX    TMP DP  RH WIND       PRES   REMARKS
REEDSBURG      SUNNY     58  37  45 S8        30.23F
BARABOO/DELLS  SUNNY     58  35  42 S8        30.24S
LONE ROCK      SUNNY     62  37  39 SE8       30.24F
MINERAL POINT  SUNNY     61  36  39 SE8       30.24S
MADISON        MOSUNNY   58  35  42 SE10      30.25F
MIDDLETON      SUNNY     60  33  35 S10       30.25F
WATERTOWN      SUNNY     57  38  49 SE9       30.26F
MONROE         SUNNY     57  37  47 SE9       30.25F
JANESVILLE     SUNNY     61  34  36 S12       30.26F
$$

WIZ051-052-058>065-066-070>072-222200-
SOUTHEAST WISCONSIN

CITY           SKY/WX    TMP DP  RH WIND       PRES   REMARKS
MILWAUKEE      MOSUNNY   50  39  66 E13       30.31F
WAUKESHA       SUNNY     54  39  58 E98       30.30F
MILWAUKEE/TIMM SUNNY     52  37  58 E7        30.31F
RACINE         SUNNY     51  38  60 SE6       30.33F
BURLINGTON     SUNNY     56  37  48 S3        30.28F
KENOSHA        SUNNY     52  40  63 E8        30.31F
FOND DU LAC    SUNNY     57  38  48 S10       30.27F
SHEBOYGAN      SUNNY     50  38  63 SE8       30.31F
WEST BEND      SUNNY     52  37  58 E8        30.28F
JUNEAU         SUNNY     55  39  54 SE9       30.27F
$$

LSZ147-162-222200-
LAKE SUPERIOR

STATION/POSITION TIME  TEMP    WIND        PRES    WAVE
                       AIR SEA DIR/SP/G            HT/PER
                 (UTC) (F)     (DEG/KT/KT) (MB)    (FT/S)
W MID LAKE BUOY  2050   46 46   80/ 10/ 12 1021.9F   1/ 4
DEVILS ISLAND    2100   48      90/ 14/ 16 1020.9F
PORT WING        2000   61     160/  9/ 13 1020.0F
SAXON HARBOR     2000   61     210/ 11/ 18 1021.0F
$$

LMZ867-665-643>646-222200-
LAKE MICHIGAN

STATION/POSITION TIME  TEMP    WIND        PRES    WAVE
                       AIR SEA DIR/SP/G            HT/PER
                 (UTC) (F)     (DEG/KT/KT) (MB)    (FT/S)
CHAMBERS ISLAND  2000   49     110/  4/  6 1026.8F
N MID LAKE BUOY  2050   42 52  120/  6/  8 1027.7F   1
NORTHPORT PIER   2000   44     130/  9/ 11 1027.1F
SISTER BAY       2013          140/ 12/ 15   N/A
KEWAUNEE LAKESHO 2100   45     130/  5/  8 1025.5F
SHEBOYGAN LAKESH 2100   47 50  160/ 11/ 12 1027.0F
PORT WASHINGTON  2000   50     140/  7/  8 1027.4
ATWATER BUOY     2100   49     140/ 10/ 12 1027.2F
MILWAUKEE LAKESH 2100   48     120/ 10/ 11   N/A
S MID LAKE BUOY  2050   47 55   10/  2/  4 1027.5F   1/ 4
KENOSHA   LAKESH 2100   53     130/  6/  8 1026.1F
$$

TC  - TEMPERATURE IN CELSIUS
VSB - VISIBILITY IN STATUTE MILES
WCI - WIND CHILL INDEX
HX  - HEAT INDEX




USA.gov is the U.S. government's official web portal to all federal, state and local government web resources and services.